,,Stat6,,Stat2,,Stat8,,Stat9,,Stat10,,Wind1,,Wind1,
time,status,PA1M_AVG,status,PR1M_SUM,status,RH1M_AVG,status,SR1M_AVG,status,TA1M_AVG,status,W1dAve1m,status,W1sAve1m,
2009-04-29, 00:00:00,VALID,918.793,VALID,0,VALID,100,VALID,-0.0509425,VALID,20.8691,VALID,88,VALID,0,
2009-04-29, 00:01:00,VALID,918.796,VALID,0,VALID,100,VALID,-0.0509425,VALID,20.8656,VALID,88,VALID,0,
2009-04-29, 00:02:00,VALID,918.812,VALID,0,VALID,100,VALID,0.0339617,VALID,20.854,VALID,88,VALID,0,
2009-04-29, 00:03:00,VALID,918.811,VALID,0,VALID,100,VALID,0.0679233,VALID,20.7962,VALID,88,VALID,0,
2009-04-29, 00:04:00,VALID,918.826,VALID,0,VALID,100,VALID,0.0849042,VALID,20.702,VALID,88,VALID,0,
2009-04-29, 00:05:00,VALID,918.829,VALID,0,VALID,100,VALID,0.0509425,VALID,20.6363,VALID,88,VALID,0,
2009-04-29, 00:06:00,VALID,918.827,VALID,0,VALID,100,VALID,0.0679233,VALID,20.5974,VALID,88,VALID,0,
2009-04-29, 00:07:00,VALID,918.82,VALID,0,VALID,100,VALID,0.0679233,VALID,20.5971,VALID,88,VALID,0,
2009-04-29, 00:08:00,VALID,918.806,VALID,0,VALID,100,VALID,0.0679233,VALID,20.6034,VALID,88,VALID,0,
2009-04-29, 00:09:00,VALID,918.799,VALID,0,VALID,100,VALID,0,VALID,20.6344,VALID,93,VALID,0,
2009-04-29, 00:10:00,VALID,918.784,VALID,0,VALID,100,VALID,-0.0509425,VALID,20.6374,VALID,110,VALID,0,
2009-04-29, 00:11:00,VALID,918.764,VALID,0,VALID,100,VALID,-0.0169808,VALID,20.6341,VALID,113,VALID,0,
2009-04-29, 00:12:00,VALID,918.741,VALID,0,VALID,100,VALID,-0.0169808,VALID,20.6084,VALID,113,VALID,0,
2009-04-29, 00:13:00,VALID,918.731,VALID,0,VALID,100,VALID,0,VALID,20.6087,VALID,113,VALID,0,
2009-04-29, 00:14:00,VALID,918.704,VALID,0,VALID,100,VALID,0,VALID,20.6092,VALID,116,VALID,0,
2009-04-29, 00:15:00,VALID,918.678,VALID,0,VALID,100,VALID,-0.0339617,VALID,20.5795,VALID,117,VALID,0,
2009-04-29, 00:16:00,VALID,918.671,VALID,0,VALID,100,VALID,0,VALID,20.5832,VALID,117,VALID,0,
2009-04-29, 00:17:00,VALID,918.657,VALID,0,VALID,100,VALID,-0.0509425,VALID,20.5762,VALID,106,VALID,0,
2009-04-29, 00:18:00,VALID,918.648,VALID,0,VALID,100,VALID,-0.0509425,VALID,20.6087,VALID,91,VALID,0,
2009-04-29, 00:19:00,VALID,918.652,VALID,0,VALID,100,VALID,-0.0679233,VALID,20.6409,VALID,82,VALID,0,
2009-04-29, 00:20:00,VALID,918.656,VALID,0,VALID,100,VALID,-0.0169808,VALID,20.6371,VALID,82,VALID,0,
2009-04-29, 00:21:00,VALID,918.651,VALID,0,VALID,100,VALID,-0.0339617,VALID,20.6606,VALID,82,VALID,0,
2009-04-29, 00:22:00,VALID,918.661,VALID,0,VALID,100,VALID,-0.0679233,VALID,20.6739,VALID,82,VALID,0,
2009-04-29, 00:23:00,VALID,918.654,VALID,0,VALID,100,VALID,-0.101885,VALID,20.6871,VALID,82,VALID,0,
2009-04-29, 00:24:00,VALID,918.647,VALID,0,VALID,100,VALID,-0.0169808,VALID,20.6963,VALID,82,VALID,0,
2009-04-29, 00:25:00,VALID,918.641,VALID,0,VALID,100,VALID,-0.0339617,VALID,20.6961,VALID,81,VALID,0,
2009-04-29, 00:26:00,VALID,918.63,VALID,0,VALID,100,VALID,-0.0169808,VALID,20.6993,VALID,81,VALID,0,
2009-04-29, 00:27:00,VALID,918.621,VALID,0,VALID,100,VALID,-0.0339617,VALID,20.7158,VALID,81,VALID,0,
2009-04-29, 00:28:00,VALID,918.614,VALID,0,VALID,100,VALID,-0.0509425,VALID,20.6996,VALID,81,VALID,0,
2009-04-29, 00:29:00,VALID,918.616,VALID,0,VALID,100,VALID,0,VALID,20.7253,VALID,89,VALID,0,
2009-04-29, 00:30:00,VALID,918.604,VALID,0,VALID,100,VALID,-0.0509425,VALID,20.738,VALID,113,VALID,0,
2009-04-29, 00:31:00,VALID,918.598,VALID,0,VALID,100,VALID,0,VALID,20.7547,VALID,119,VALID,0,
2009-04-29, 00:32:00,VALID,918.584,VALID,0,VALID,100,VALID,0,VALID,20.7645,VALID,139,VALID,0,
2009-04-29, 00:33:00,VALID,918.565,VALID,0,VALID,100,VALID,-0.0169808,VALID,20.7772,VALID,142,VALID,0,
2009-04-29, 00:34:00,VALID,918.552,VALID,0,VALID,100,VALID,-0.0509425,VALID,20.7772,VALID,146,VALID,0,
2009-04-29, 00:35:00,VALID,918.531,VALID,0,VALID,100,VALID,-0.0169808,VALID,20.7775,VALID,135,VALID,0,
2009-04-29, 00:36:00,VALID,918.533,VALID,0,VALID,100,VALID,-0.0509425,VALID,20.7875,VALID,132,VALID,0,
2009-04-29, 00:37:00,VALID,918.539,VALID,0,VALID,100,VALID,-0.0339617,VALID,20.7802,VALID,129,VALID,0,
2009-04-29, 00:38:00,VALID,918.549,VALID,0,VALID,100,VALID,-0.0509425,VALID,20.7842,VALID,122,VALID,0.00621449,
2009-04-29, 00:39:00,VALID,918.551,VALID,0,VALID,100,VALID,0,VALID,20.774,VALID,126,VALID,0.0344893,
2009-04-29, 00:40:00,VALID,918.53,VALID,0,VALID,100,VALID,-0.0169808,VALID,20.7737,VALID,131,VALID,0.000585938,
2009-04-29, 00:41:00,VALID,918.517,VALID,0,VALID,100,VALID,-0.0169808,VALID,20.774,VALID,117,VALID,0.000545058,
2009-04-29, 00:42:00,VALID,918.489,VALID,0,VALID,100,VALID,-0.0339617,VALID,20.7972,VALID,133,VALID,0.106898,
2009-04-29, 00:43:00,VALID,918.455,VALID,0,VALID,100,VALID,-0.0509425,VALID,20.7934,VALID,122,VALID,0.0846037,
2009-04-29, 00:44:00,VALID,918.43,VALID,0,VALID,100,VALID,-0.0509425,VALID,20.7934,VALID,135,VALID,0.00364583,
2009-04-29, 00:45:00,VALID,918.393,VALID,0,VALID,100,VALID,-0.0169808,VALID,20.7964,VALID,127,VALID,0,
2009-04-29, 00:46:00,VALID,918.378,VALID,0,VALID,100,VALID,-0.0169808,VALID,20.8134,VALID,136,VALID,0,
2009-04-29, 00:47:00,VALID,918.361,VALID,0,VALID,100,VALID,-0.0169808,VALID,20.8129,VALID,157,VALID,0,
2009-04-29, 00:48:00,VALID,918.346,VALID,0,VALID,100,VALID,-0.0169808,VALID,20.8421,VALID,142,VALID,0,
2009-04-29, 00:49:00,VALID,918.342,VALID,0,VALID,100,VALID,-0.0169808,VALID,20.8294,VALID,147,VALID,0,
2009-04-29, 00:50:00,VALID,918.324,VALID,0,VALID,100,VALID,-0.0169808,VALID,20.8289,VALID,163,VALID,0,
2009-04-29, 00:51:00,VALID,918.311,VALID,0,VALID,100,VALID,-0.0339617,VALID,20.8389,VALID,144,VALID,0,
2009-04-29, 00:52:00,VALID,918.294,VALID,0,VALID,100,VALID,-0.0509425,VALID,20.8394,VALID,143,VALID,0,
2009-04-29, 00:53:00,VALID,918.275,VALID,0,VALID,100,VALID,-0.0169808,VALID,20.8194,VALID,123,VALID,0,
2009-04-29, 00:54:00,VALID,918.254,VALID,0,VALID,100,VALID,-0.0169808,VALID,20.8129,VALID,130,VALID,0,
2009-04-29, 00:55:00,VALID,918.247,VALID,0,VALID,100,VALID,0,VALID,20.7964,VALID,128,VALID,0,
2009-04-29, 00:56:00,VALID,918.235,VALID,0,VALID,100,VALID,-0.0169808,VALID,20.7769,VALID,138,VALID,0,
2009-04-29, 00:57:00,VALID,918.216,VALID,0,VALID,100,VALID,0,VALID,20.7575,VALID,133,VALID,0,
2009-04-29, 00:58:00,VALID,918.204,VALID,0,VALID,100,VALID,-0.0509425,VALID,20.7542,VALID,122,VALID,0,
2009-04-29, 00:59:00,VALID,918.186,VALID,0,VALID,100,VALID,-0.0169808,VALID,20.7347,VALID,125,VALID,0,
2009-04-29, 01:00:00,VALID,918.172,VALID,0,VALID,100,VALID,-0.0169808,VALID,20.7383,VALID,122,VALID,0,
2009-04-29, 01:01:00,VALID,918.152,VALID,0,VALID,100,VALID,-0.0339617,VALID,20.7353,VALID,122,VALID,0,
2009-04-29, 01:02:00,VALID,918.142,VALID,0,VALID,100,VALID,-0.0169808,VALID,20.7347,VALID,122,VALID,0,
2009-04-29, 01:03:00,VALID,918.127,VALID,0,VALID,100,VALID,-0.0169808,VALID,20.761,VALID,114,VALID,0,
2009-04-29, 01:04:00,VALID,918.112,VALID,0,VALID,100,VALID,-0.0169808,VALID,20.764,VALID,91,VALID,0,
2009-04-29, 01:05:00,VALID,918.109,VALID,0,VALID,100,VALID,0,VALID,20.7383,VALID,91,VALID,0,
2009-04-29, 01:06:00,VALID,918.098,VALID,0,VALID,100,VALID,0,VALID,20.7215,VALID,91,VALID,0,
2009-04-29, 01:07:00,VALID,918.098,VALID,0,VALID,100,VALID,0,VALID,20.7061,VALID,91,VALID,0,
2009-04-29, 01:08:00,VALID,918.084,VALID,0,VALID,100,VALID,-0.0509425,VALID,20.6763,VALID,156,VALID,0,
2009-04-29, 01:09:00,VALID,918.065,VALID,0,VALID,100,VALID,-0.0169808,VALID,20.6696,VALID,166,VALID,0,
2009-04-29, 01:10:00,VALID,918.035,VALID,0,VALID,100,VALID,-0.0169808,VALID,20.6636,VALID,150,VALID,0,
2009-04-29, 01:11:01,VALID,918.019,VALID,0,VALID,100,VALID,-0.0169808,VALID,20.6566,VALID,150,VALID,0,
2009-04-29, 01:12:00,VALID,918,VALID,0,VALID,100,VALID,-0.0169808,VALID,20.6574,VALID,158,VALID,0,
2009-04-29, 01:13:01,VALID,917.972,VALID,0,VALID,100,VALID,-0.0169808,VALID,20.6433,VALID,162,VALID,0,
2009-04-29, 01:14:00,VALID,917.949,VALID,0,VALID,100,VALID,-0.0169808,VALID,20.6501,VALID,170,VALID,0,
2009-04-29, 01:15:00,VALID,917.927,VALID,0,VALID,100,VALID,-0.0339617,VALID,20.6641,VALID,175,VALID,0,
2009-04-29, 01:16:00,VALID,917.922,VALID,0,VALID,100,VALID,-0.0509425,VALID,20.6533,VALID,175,VALID,0,
2009-04-29, 01:17:00,VALID,917.911,VALID,0,VALID,100,VALID,0,VALID,20.6763,VALID,175,VALID,0,
2009-04-29, 01:18:00,VALID,917.919,VALID,0,VALID,100,VALID,-0.0169808,VALID,20.6828,VALID,175,VALID,0,
2009-04-29, 01:19:00,VALID,917.915,VALID,0,VALID,100,VALID,-0.0339617,VALID,20.6666,VALID,175,VALID,0,
2009-04-29, 01:20:00,VALID,917.912,VALID,0,VALID,100,VALID,-0.0169808,VALID,20.6371,VALID,175,VALID,0,
2009-04-29, 01:21:01,VALID,917.919,VALID,0,VALID,100,VALID,-0.0339617,VALID,20.6279,VALID,175,VALID,0,
2009-04-29, 01:22:00,VALID,917.914,VALID,0,VALID,100,VALID,-0.0169808,VALID,20.6409,VALID,63,VALID,0,
2009-04-29, 01:23:00,VALID,917.915,VALID,0,VALID,100,VALID,-0.0339617,VALID,20.6282,VALID,59,VALID,0,
2009-04-29, 01:24:00,VALID,917.9,VALID,0,VALID,100,VALID,-0.0169808,VALID,20.553,VALID,59,VALID,0,
2009-04-29, 01:25:00,VALID,917.888,VALID,0,VALID,100,VALID,-0.0169808,VALID,20.527,VALID,59,VALID,0,
2009-04-29, 01:26:00,VALID,917.89,VALID,0,VALID,100,VALID,0,VALID,20.5338,VALID,70,VALID,0,
2009-04-29, 01:27:00,VALID,917.876,VALID,0,VALID,100,VALID,0,VALID,20.5081,VALID,146,VALID,0,
2009-04-29, 01:28:00,VALID,917.871,VALID,0,VALID,100,VALID,-0.0169808,VALID,20.4946,VALID,152,VALID,0,
2009-04-29, 01:29:01,VALID,917.869,VALID,0,VALID,100,VALID,0,VALID,20.5113,VALID,111,VALID,0,
2009-04-29, 01:30:00,VALID,917.845,VALID,0,VALID,100,VALID,0,VALID,20.5203,VALID,75,VALID,0,
2009-04-29, 01:31:00,VALID,917.842,VALID,0,VALID,100,VALID,-0.0169808,VALID,20.5238,VALID,71,VALID,0,
2009-04-29, 01:32:00,VALID,917.827,VALID,0,VALID,100,VALID,-0.0339617,VALID,20.527,VALID,73,VALID,0,
2009-04-29, 01:33:01,VALID,917.822,VALID,0,VALID,100,VALID,-0.0339617,VALID,20.527,VALID,59,VALID,0,
2009-04-29, 01:34:01,VALID,917.805,VALID,0,VALID,100,VALID,-0.0339617,VALID,20.5465,VALID,51,VALID,0,
2009-04-29, 01:35:01,VALID,917.807,VALID,0,VALID,100,VALID,0,VALID,20.5625,VALID,45,VALID,0,
2009-04-29, 01:36:01,VALID,917.793,VALID,0,VALID,100,VALID,0.0169808,VALID,20.5562,VALID,29,VALID,0,
2009-04-29, 01:37:00,VALID,917.804,VALID,0,VALID,100,VALID,-0.0169808,VALID,20.5725,VALID,28,VALID,0,
2009-04-29, 01:38:00,VALID,917.807,VALID,0,VALID,100,VALID,-0.0339617,VALID,20.579,VALID,28,VALID,0,
2009-04-29, 01:39:00,VALID,917.812,VALID,0,VALID,100,VALID,-0.0339617,VALID,20.5368,VALID,28,VALID,0,
2009-04-29, 01:40:01,VALID,917.825,VALID,0,VALID,100,VALID,-0.0339617,VALID,20.5365,VALID,28,VALID,0,
2009-04-29, 01:41:00,VALID,917.838,VALID,0,VALID,100,VALID,-0.0339617,VALID,20.5273,VALID,28,VALID,0,
2009-04-29, 01:42:00,VALID,917.84,VALID,0,VALID,100,VALID,-0.0169808,VALID,20.5176,VALID,28,VALID,0,
2009-04-29, 01:43:00,VALID,917.843,VALID,0,VALID,100,VALID,0,VALID,20.5238,VALID,28,VALID,0,
2009-04-29, 01:44:00,VALID,917.829,VALID,0,VALID,100,VALID,-0.0509425,VALID,20.5562,VALID,28,VALID,0,
2009-04-29, 01:45:00,VALID,917.823,VALID,0,VALID,100,VALID,0,VALID,20.586,VALID,28,VALID,0,
2009-04-29, 01:46:00,VALID,917.82,VALID,0,VALID,100,VALID,-0.0169808,VALID,20.5825,VALID,26,VALID,0,
2009-04-29, 01:47:01,VALID,917.818,VALID,0,VALID,100,VALID,-0.0509425,VALID,20.576,VALID,25,VALID,0,
2009-04-29, 01:48:00,VALID,917.829,VALID,0,VALID,100,VALID,-0.0339617,VALID,20.5468,VALID,25,VALID,0,
2009-04-29, 01:49:00,VALID,917.83,VALID,0,VALID,100,VALID,-0.0339617,VALID,20.5368,VALID,25,VALID,0,
2009-04-29, 01:50:01,VALID,917.828,VALID,0,VALID,100,VALID,-0.0509425,VALID,20.553,VALID,25,VALID,0,
2009-04-29, 01:51:01,VALID,917.817,VALID,0,VALID,100,VALID,-0.0509425,VALID,20.5208,VALID,26,VALID,0,
2009-04-29, 01:52:01,VALID,917.793,VALID,0,VALID,100,VALID,-0.0679233,VALID,20.5208,VALID,40,VALID,0,
2009-04-29, 01:53:00,VALID,917.782,VALID,0,VALID,100,VALID,-0.0339617,VALID,20.5081,VALID,51,VALID,0,
2009-04-29, 01:54:00,VALID,917.765,VALID,0,VALID,100,VALID,-0.0339617,VALID,20.4881,VALID,49,VALID,0,
2009-04-29, 01:55:00,VALID,917.772,VALID,0,VALID,100,VALID,-0.0169808,VALID,20.5108,VALID,30,VALID,0,
2009-04-29, 01:56:00,VALID,917.779,VALID,0,VALID,100,VALID,-0.0169808,VALID,20.5108,VALID,30,VALID,0,
2009-04-29, 01:57:00,VALID,917.795,VALID,0,VALID,100,VALID,-0.0679233,VALID,20.5046,VALID,30,VALID,0,
2009-04-29, 01:58:00,VALID,917.82,VALID,0,VALID,100,VALID,-0.0679233,VALID,20.5113,VALID,30,VALID,0,
2009-04-29, 01:59:01,VALID,917.828,VALID,0,VALID,100,VALID,-0.0849042,VALID,20.5208,VALID,30,VALID,0,
2009-04-29, 02:00:00,VALID,917.826,VALID,0,VALID,100,VALID,-0.0849042,VALID,20.5468,VALID,30,VALID,0,
2009-04-29, 02:01:01,VALID,917.827,VALID,0,VALID,100,VALID,-0.0509425,VALID,20.5343,VALID,30,VALID,0,
2009-04-29, 02:02:01,VALID,917.819,VALID,0,VALID,100,VALID,-0.0679233,VALID,20.5048,VALID,30,VALID,0,
2009-04-29, 02:03:01,VALID,917.795,VALID,0,VALID,100,VALID,-0.101885,VALID,20.4886,VALID,30,VALID,0,
2009-04-29, 02:04:01,VALID,917.792,VALID,0,VALID,100,VALID,-0.0679233,VALID,20.4786,VALID,30,VALID,0,
2009-04-29, 02:05:01,VALID,917.789,VALID,0,VALID,100,VALID,-0.0509425,VALID,20.4721,VALID,30,VALID,0,
2009-04-29, 02:06:01,VALID,917.772,VALID,0,VALID,100,VALID,-0.0679233,VALID,20.4784,VALID,30,VALID,0,
2009-04-29, 02:07:01,VALID,917.764,VALID,0,VALID,100,VALID,-0.0679233,VALID,20.4856,VALID,30,VALID,0,
2009-04-29, 02:08:01,VALID,917.76,VALID,0,VALID,100,VALID,-0.0509425,VALID,20.4976,VALID,30,VALID,0,
2009-04-29, 02:09:01,VALID,917.75,VALID,0,VALID,100,VALID,0.0679233,VALID,20.5033,VALID,30,VALID,0,
2009-04-29, 02:10:01,VALID,917.753,VALID,0,VALID,100,VALID,0.0679233,VALID,20.4963,VALID,30,VALID,0,
2009-04-29, 02:11:01,VALID,917.751,VALID,0,VALID,100,VALID,0.0339617,VALID,20.5063,VALID,30,VALID,0,
2009-04-29, 02:12:00,VALID,917.75,VALID,0,VALID,100,VALID,0.0509425,VALID,20.5028,VALID,30,VALID,0,
2009-04-29, 02:13:00,VALID,917.749,VALID,0,VALID,100,VALID,0.0169808,VALID,20.5222,VALID,30,VALID,0,
2009-04-29, 02:14:00,VALID,917.743,VALID,0,VALID,100,VALID,0.0679233,VALID,20.5479,VALID,30,VALID,0,
2009-04-29, 02:15:00,VALID,917.748,VALID,0,VALID,100,VALID,0.0679233,VALID,20.5509,VALID,30,VALID,0,
2009-04-29, 02:16:00,VALID,917.744,VALID,0,VALID,100,VALID,0.0849042,VALID,20.5552,VALID,30,VALID,0,
2009-04-29, 02:17:00,VALID,917.73,VALID,0,VALID,100,VALID,0.0849042,VALID,20.5582,VALID,30,VALID,0,
2009-04-29, 02:18:00,VALID,917.709,VALID,0,VALID,100,VALID,0.0509425,VALID,20.5642,VALID,30,VALID,0,
2009-04-29, 02:19:00,VALID,917.692,VALID,0,VALID,100,VALID,0.0849042,VALID,20.5317,VALID,30,VALID,0,
2009-04-29, 02:20:00,VALID,917.67,VALID,0,VALID,100,VALID,0.0849042,VALID,20.496,VALID,33,VALID,0,
2009-04-29, 02:21:00,VALID,917.637,VALID,0,VALID,100,VALID,0.0679233,VALID,20.4703,VALID,42,VALID,0,
2009-04-29, 02:22:00,VALID,917.603,VALID,0,VALID,100,VALID,0.0509425,VALID,20.4571,VALID,58,VALID,0,
2009-04-29, 02:23:00,VALID,917.566,VALID,0,VALID,100,VALID,0.0679233,VALID,20.4571,VALID,79,VALID,0,
2009-04-29, 02:24:00,VALID,917.549,VALID,0,VALID,100,VALID,0.0339617,VALID,20.4641,VALID,123,VALID,0,
2009-04-29, 02:25:00,VALID,917.519,VALID,0,VALID,100,VALID,0.0339617,VALID,20.4708,VALID,123,VALID,0,
2009-04-29, 02:26:00,VALID,917.495,VALID,0,VALID,100,VALID,0.0339617,VALID,20.4841,VALID,123,VALID,0,
2009-04-29, 02:27:00,VALID,917.481,VALID,0,VALID,100,VALID,0.0509425,VALID,20.4871,VALID,127,VALID,0,
2009-04-29, 02:28:00,VALID,917.476,VALID,0,VALID,100,VALID,0.0169808,VALID,20.4778,VALID,131,VALID,0,
2009-04-29, 02:29:00,VALID,917.467,VALID,0,VALID,100,VALID,0.0169808,VALID,20.4576,VALID,125,VALID,0,
2009-04-29, 02:30:00,VALID,917.455,VALID,0,VALID,100,VALID,0.0509425,VALID,20.4408,VALID,132,VALID,0,
2009-04-29, 02:31:00,VALID,917.43,VALID,0,VALID,100,VALID,0.0169808,VALID,20.4379,VALID,133,VALID,0,
2009-04-29, 02:32:00,VALID,917.42,VALID,0,VALID,100,VALID,0.0509425,VALID,20.4414,VALID,142,VALID,0,
2009-04-29, 02:33:00,VALID,917.412,VALID,0,VALID,100,VALID,0.0849042,VALID,20.4411,VALID,146,VALID,0,
2009-04-29, 02:34:00,VALID,917.41,VALID,0,VALID,100,VALID,0.0849042,VALID,20.4443,VALID,129,VALID,0,
2009-04-29, 02:35:00,VALID,917.405,VALID,0,VALID,100,VALID,0.0849042,VALID,20.4643,VALID,109,VALID,0,
2009-04-29, 02:36:00,VALID,917.41,VALID,0,VALID,100,VALID,0.101885,VALID,20.4376,VALID,135,VALID,0.000347222,
2009-04-29, 02:37:00,VALID,917.402,VALID,0,VALID,100,VALID,0.0849042,VALID,20.4311,VALID,116,VALID,0.0282452,
2009-04-29, 02:38:00,VALID,917.406,VALID,0,VALID,100,VALID,0.0849042,VALID,20.4022,VALID,126,VALID,0.150436,
2009-04-29, 02:39:00,VALID,917.41,VALID,0,VALID,100,VALID,-0.0169808,VALID,20.3937,VALID,116,VALID,0.00117188,
2009-04-29, 02:40:00,VALID,917.406,VALID,0,VALID,100,VALID,-0.0169808,VALID,20.381,VALID,104,VALID,0.00118886,
2009-04-29, 02:41:00,VALID,917.407,VALID,0,VALID,100,VALID,0,VALID,20.355,VALID,128,VALID,0,
2009-04-29, 02:42:00,VALID,917.399,VALID,0,VALID,100,VALID,0,VALID,20.3423,VALID,140,VALID,0,
2009-04-29, 02:43:00,VALID,917.393,VALID,0,VALID,100,VALID,-0.0339617,VALID,20.358,VALID,141,VALID,0,
2009-04-29, 02:44:00,VALID,917.403,VALID,0,VALID,100,VALID,0,VALID,20.3485,VALID,120,VALID,0,
2009-04-29, 02:45:00,VALID,917.387,VALID,0,VALID,100,VALID,-0.0339617,VALID,20.342,VALID,120,VALID,0.167436,
2009-04-29, 02:46:00,VALID,917.386,VALID,0,VALID,100,VALID,0,VALID,20.3288,VALID,128,VALID,0.0139101,
2009-04-29, 02:47:00,VALID,917.39,VALID,0,VALID,100,VALID,0,VALID,20.3031,VALID,111,VALID,0.126453,
2009-04-29, 02:48:00,VALID,917.383,VALID,0,VALID,100,VALID,0,VALID,20.2899,VALID,114,VALID,0,
2009-04-29, 02:49:00,VALID,917.373,VALID,0,VALID,100,VALID,-0.0169808,VALID,20.3096,VALID,83,VALID,0,
2009-04-29, 02:50:00,VALID,917.36,VALID,0,VALID,100,VALID,0,VALID,20.3126,VALID,79,VALID,0,
2009-04-29, 02:51:00,VALID,917.351,VALID,0,VALID,100,VALID,0,VALID,20.3058,VALID,109,VALID,0,
2009-04-29, 02:52:00,VALID,917.351,VALID,0,VALID,100,VALID,0,VALID,20.2966,VALID,111,VALID,0,
2009-04-29, 02:53:00,VALID,917.357,VALID,0,VALID,100,VALID,0,VALID,20.3221,VALID,70,VALID,0,
2009-04-29, 02:54:00,VALID,917.345,VALID,0,VALID,100,VALID,-0.0339617,VALID,20.342,VALID,73,VALID,0,
2009-04-29, 02:55:00,VALID,917.347,VALID,0,VALID,100,VALID,0,VALID,20.3226,VALID,80,VALID,0.00243056,
2009-04-29, 02:56:00,VALID,917.366,VALID,0,VALID,100,VALID,0,VALID,20.3223,VALID,72,VALID,0,
2009-04-29, 02:57:00,VALID,917.362,VALID,0,VALID,100,VALID,0,VALID,20.3056,VALID,72,VALID,0.00130208,
2009-04-29, 02:58:00,VALID,917.36,VALID,0,VALID,100,VALID,0,VALID,20.3028,VALID,103,VALID,0.0297619,
2009-04-29, 02:59:00,VALID,917.356,VALID,0,VALID,100,VALID,0,VALID,20.2869,VALID,124,VALID,0.0459223,
2009-04-29, 03:00:00,VALID,917.349,VALID,0,VALID,100,VALID,0.0169808,VALID,20.2964,VALID,136,VALID,0.0691964,
2009-04-29, 03:01:00,VALID,917.347,VALID,0,VALID,100,VALID,0,VALID,20.2801,VALID,128,VALID,0.0124628,
2009-04-29, 03:02:00,VALID,917.34,VALID,0,VALID,100,VALID,0,VALID,20.2642,VALID,118,VALID,0,
2009-04-29, 03:03:00,VALID,917.343,VALID,0,VALID,100,VALID,0,VALID,20.2604,VALID,114,VALID,0,
2009-04-29, 03:04:00,VALID,917.34,VALID,0,VALID,100,VALID,-0.0169808,VALID,20.2869,VALID,144,VALID,0,
2009-04-29, 03:05:00,VALID,917.341,VALID,0,VALID,100,VALID,0,VALID,20.2964,VALID,159,VALID,0,
2009-04-29, 03:06:00,VALID,917.338,VALID,0,VALID,100,VALID,0,VALID,20.2672,VALID,149,VALID,0,
2009-04-29, 03:07:00,VALID,917.344,VALID,0,VALID,100,VALID,-0.0339617,VALID,20.2607,VALID,156,VALID,0,
2009-04-29, 03:08:00,VALID,917.334,VALID,0,VALID,100,VALID,0,VALID,20.2274,VALID,178,VALID,0,
2009-04-29, 03:09:00,VALID,917.324,VALID,0,VALID,100,VALID,0.0169808,VALID,20.2247,VALID,148,VALID,0,
2009-04-29, 03:10:00,VALID,917.313,VALID,0,VALID,100,VALID,0,VALID,20.1958,VALID,137,VALID,0,
2009-04-29, 03:11:00,VALID,917.288,VALID,0,VALID,100,VALID,0,VALID,20.1858,VALID,151,VALID,0,
2009-04-29, 03:12:00,VALID,917.28,VALID,0,VALID,100,VALID,0.0169808,VALID,20.202,VALID,138,VALID,0,
2009-04-29, 03:13:00,VALID,917.277,VALID,0,VALID,100,VALID,0,VALID,20.2152,VALID,148,VALID,0,
2009-04-29, 03:14:00,VALID,917.263,VALID,0,VALID,100,VALID,0.0169808,VALID,20.205,VALID,104,VALID,0,
2009-04-29, 03:15:00,VALID,917.247,VALID,0,VALID,100,VALID,-0.0339617,VALID,20.1828,VALID,120,VALID,0,
2009-04-29, 03:16:00,VALID,917.242,VALID,0,VALID,100,VALID,-0.0169808,VALID,20.1603,VALID,116,VALID,0,
2009-04-29, 03:17:00,VALID,917.228,VALID,0,VALID,100,VALID,0,VALID,20.1598,VALID,123,VALID,0,
2009-04-29, 03:18:00,VALID,917.232,VALID,0,VALID,100,VALID,0,VALID,20.1496,VALID,137,VALID,0,
2009-04-29, 03:19:00,VALID,917.224,VALID,0,VALID,100,VALID,-0.0169808,VALID,20.1406,VALID,154,VALID,0.00114329,
2009-04-29, 03:20:00,VALID,917.222,VALID,0,VALID,100,VALID,0,VALID,20.1376,VALID,144,VALID,0,
2009-04-29, 03:21:00,VALID,917.233,VALID,0,VALID,100,VALID,-0.0339617,VALID,20.1241,VALID,155,VALID,0.00594429,
2009-04-29, 03:22:00,VALID,917.225,VALID,0,VALID,100,VALID,0,VALID,20.1179,VALID,168,VALID,0,
2009-04-29, 03:23:00,VALID,917.23,VALID,0,VALID,100,VALID,-0.0169808,VALID,20.1084,VALID,160,VALID,0,
2009-04-29, 03:24:00,VALID,917.249,VALID,0,VALID,100,VALID,-0.0169808,VALID,20.0919,VALID,135,VALID,0,
2009-04-29, 03:25:00,VALID,917.255,VALID,0,VALID,100,VALID,-0.0169808,VALID,20.0824,VALID,127,VALID,0.0359738,
2009-04-29, 03:26:00,VALID,917.263,VALID,0,VALID,100,VALID,0,VALID,20.053,VALID,129,VALID,0.0348704,
2009-04-29, 03:27:00,VALID,917.293,VALID,0,VALID,100,VALID,0,VALID,20.0335,VALID,136,VALID,0.0024858,
2009-04-29, 03:28:00,VALID,917.283,VALID,0,VALID,100,VALID,-0.0679233,VALID,20.0273,VALID,130,VALID,0,
2009-04-29, 03:29:00,VALID,917.267,VALID,0,VALID,100,VALID,0,VALID,20.0203,VALID,135,VALID,0.0012429,
2009-04-29, 03:30:00,VALID,917.255,VALID,0,VALID,100,VALID,0,VALID,20.0205,VALID,135,VALID,0,
2009-04-29, 03:31:00,VALID,917.231,VALID,0,VALID,100,VALID,0,VALID,20.0233,VALID,137,VALID,0,
2009-04-29, 03:32:00,VALID,917.22,VALID,0,VALID,100,VALID,0.0169808,VALID,20.0235,VALID,126,VALID,0,
2009-04-29, 03:33:00,VALID,917.214,VALID,0,VALID,100,VALID,0,VALID,20.0203,VALID,117,VALID,0,
2009-04-29, 03:34:00,VALID,917.216,VALID,0,VALID,100,VALID,0.0169808,VALID,20.01,VALID,121,VALID,0,
2009-04-29, 03:35:00,VALID,917.229,VALID,0,VALID,100,VALID,-0.0169808,VALID,20.0338,VALID,106,VALID,0,
2009-04-29, 03:36:00,VALID,917.226,VALID,0,VALID,100,VALID,0,VALID,20.027,VALID,106,VALID,0,
2009-04-29, 03:37:00,VALID,917.231,VALID,0,VALID,100,VALID,0,VALID,20.027,VALID,100,VALID,0,
2009-04-29, 03:38:00,VALID,917.222,VALID,0,VALID,100,VALID,-0.0169808,VALID,20.03,VALID,81,VALID,0,
2009-04-29, 03:39:00,VALID,917.22,VALID,0,VALID,100,VALID,-0.0169808,VALID,20.0111,VALID,89,VALID,0,
2009-04-29, 03:40:00,VALID,917.226,VALID,0,VALID,100,VALID,0,VALID,20.014,VALID,90,VALID,0,
2009-04-29, 03:41:00,VALID,917.228,VALID,0,VALID,100,VALID,-0.0169808,VALID,19.9948,VALID,109,VALID,0,
2009-04-29, 03:42:00,VALID,917.233,VALID,0,VALID,100,VALID,-0.0169808,VALID,19.9719,VALID,104,VALID,0,
2009-04-29, 03:43:00,VALID,917.238,VALID,0,VALID,100,VALID,-0.0509425,VALID,19.9686,VALID,108,VALID,0,
2009-04-29, 03:44:00,VALID,917.241,VALID,0,VALID,100,VALID,-0.0169808,VALID,19.9621,VALID,83,VALID,0,
2009-04-29, 03:45:00,VALID,917.255,VALID,0,VALID,100,VALID,0,VALID,19.9526,VALID,66,VALID,0,
2009-04-29, 03:46:00,VALID,917.285,VALID,0,VALID,100,VALID,-0.0169808,VALID,19.9394,VALID,69,VALID,0,
2009-04-29, 03:47:00,VALID,917.304,VALID,0,VALID,100,VALID,0,VALID,19.91,VALID,86,VALID,0,
2009-04-29, 03:48:00,VALID,917.328,VALID,0,VALID,100,VALID,-0.0169808,VALID,19.9035,VALID,87,VALID,0,
2009-04-29, 03:49:00,VALID,917.351,VALID,0,VALID,100,VALID,-0.0509425,VALID,19.9072,VALID,92,VALID,0,
2009-04-29, 03:50:00,VALID,917.388,VALID,0,VALID,100,VALID,0,VALID,19.897,VALID,66,VALID,0,
2009-04-29, 03:51:00,VALID,917.396,VALID,0,VALID,100,VALID,-0.0339617,VALID,19.914,VALID,66,VALID,0,
2009-04-29, 03:52:00,VALID,917.403,VALID,0,VALID,100,VALID,-0.0339617,VALID,19.9105,VALID,66,VALID,0,
2009-04-29, 03:53:00,VALID,917.396,VALID,0,VALID,100,VALID,-0.0169808,VALID,19.9172,VALID,68,VALID,0,